loading
DOY 175 | 2024-06-23T11:47:48Z

THOR ABLESTAR DEB, 516

Orbit data source: Space-Track

THOR ABLESTAR DEB, 516 is space debris in LEO originally from a launch on Thu, 29 Jun 1961 UTC launched from the Air Force Eastern Test Range (AFETR). Debris objects in space refer to the collection of defunct objects orbiting the Earth. Examples of debris include non-operational satellites, rocket bodies, and fragments generated from explosions, collisions, or faulty payload assembly.

Loading next visibility...
Loading greatness...
THOR ABLESTAR DEB details
NORAD ID516
COSPAR ID
1961-015FT
Orbit
LEO
Last TLE update7 hours ago
Origin
Flag of USUSAF SSD (US)
ManufacturerUnknown
BusUnknown
MotorUnknown
MassWet unknown, Dry mass unknown
Launch date (UTC)
1961-06-29 (63 years ago)
Launch vehicleUnknown
Launch site
Air Force Eastern Test Range (AFETR)
Object type
Payload
Rocket body
Debris
Radar Cross SectionMedium (>0.1 m² and <1 m²)
Predictive object data (real-time)
Latitude14.9927°
Longitude-160.21549°
Altitude978.942 km
Speed7.335 km/s
Apparent Right ascension11h 43m 14s
Apparent Declination-10° 25' 56"
Sunlit
Object is in daylight
Predictive observer data (real-time)
Local Sidereal Time22:55:53
Azimuth337.145° NNW
Elevation-58.699°
Doppler factor1
Orbital elements
Apogee979.141 km
Perigee860.492 km
Semi-major axis7,297.953 km
Eccentricity0.0081289
Inclination65.9926°
RAAN177.8608°
Arg. of periapsis178.3376°
True anomaly181.76946°
Mean anomaly181.7984°
Mean motion3.4813 °/min
BSTAR0.00016809
Period103.41 mins
Definitive object data (Epoch: 2024-06-23T04:49:12.838Z)
Latitude0.00005°
Longitude-166.2959°
Altitude982.66 km
Speed7.331 km/s
True Right ascension11h 51m 26s
True Declination0° 00' 00"
Sunlit
Object was in daylight at TLE epoch
TLE from 7 hours ago
0 THOR ABLESTAR DEB
1   516U 61015FT  24175.20084304  .00000138  00000-0  16809-3 0  9994
2   516  65.9926 177.8608 0081289 178.3376 181.7984 13.92085787188095
Epoch: 2024-06-23T04:49Z
No data available

THOR ABLESTAR DEB Visibility forecast

Observer location: 39.9160978°, -105.1181434, 0m alt.

THOR ABLESTAR DEB is not visible in the next 10 days
Span
Click to sort rows by Start time (UTC) header in descending order
Start Az.
Max El. time (UTC)
Max El. Az.
Max El.
End time (UTC)
End Az.